VK2RZ Weather Reports


Display with metric or nautical units.
time (UTC)temp
F
wind
direction
speed
MPH
gust
MPH
rain 1hr
in
rain 24hr
in
rain mn
in
humidity
%
barometer
mb
20260902203432 65 0 0.0 2.0 0.00 0.00 0.00 6 1009.5
20260902202433 65 0 0.0 4.0 0.00 0.00 0.00 6 1009.8
20260902201432 64 91 4.0 4.0 0.00 0.00 0.00 6 1009.9
20260902200432 65 87 4.0 8.0 0.00 0.00 0.00 6 1009.9
20260902195436 64 0 0.0 3.0 0.00 0.00 0.00 6 1009.7
20260902194432 65 209 1.0 2.0 0.00 0.00 0.00 6 1010.1
20260902193432 65 229 3.0 3.0 0.00 0.00 0.00 6 1010.2
20260902192433 65 230 2.0 2.0 0.00 0.00 0.00 6 1010.3
20260902191432 65 230 2.0 2.0 0.00 0.00 0.00 6 1010.7
20260902190432 65 0 0.0 0.0 0.00 0.00 0.00 6 1010.9
20260902185432 67 230 2.0 4.0 0.00 0.00 0.00 6 1011.0
20260902184432 68 233 2.0 4.0 0.00 0.00 0.00 5 1011.2
20260902183436 68 265 2.0 10.0 0.00 0.00 0.00 5 1011.5
20260902182433 67 132 2.0 3.0 0.00 0.00 0.00 5 1010.9
20260902180432 67 132 2.0 2.0 0.00 0.00 0.00 5 1010.3
20260902174432 68 132 1.0 5.0 0.00 0.00 0.00 5 1010.4
20260902173432 68 175 1.0 6.0 0.00 0.00 0.00 5 1010.6
20260902172432 68 233 3.0 4.0 0.00 0.00 0.00 5 1010.8
20260902171433 68 132 2.0 9.0 0.00 0.00 0.00 5 1011.0
20260902170432 68 235 4.0 9.0 0.00 0.00 0.00 5 1010.9
20260902165433 68 233 1.0 9.0 0.00 0.00 0.00 5 1011.2
20260902164432 68 258 2.0 7.0 0.00 0.00 0.00 5 1011.2
20260902163432 68 191 1.0 11.0 0.00 0.00 0.00 5 1011.5
20260902162432 67 235 5.0 5.0 0.00 0.00 0.00 5 1011.7
20260902161433 67 252 4.0 5.0 0.00 0.00 0.00 5 1011.7
20260902160432 67 238 3.0 3.0 0.00 0.00 0.00 6 1011.8
20260902155432 66 231 1.0 4.0 0.00 0.00 0.00 6 1012.0
20260902154432 65 231 4.0 5.0 0.00 0.00 0.00 6 1012.2
20260902153431 67 261 1.0 4.0 0.00 0.00 0.00 6 1012.3
20260902152432 67 265 2.0 5.0 0.00 0.00 0.00 5 1012.4
20260902151431 66 274 3.0 4.0 0.00 0.00 0.00 5 1012.5
20260902150431 66 294 2.0 3.0 0.00 0.00 0.00 6 1012.6
20260902145431 65 247 1.0 4.0 0.00 0.00 0.00 6 1012.9
20260902144431 65 274 1.0 2.0 0.00 0.00 0.00 6 1012.9
20260902143432 66 274 2.0 4.0 0.00 0.00 0.00 5 1013.0
20260902142432 65 274 2.0 3.0 0.00 0.00 0.00 6 1013.1
20260902141431 65 274 1.0 3.0 0.00 0.00 0.00 6 1013.3
20260902140433 65 274 1.0 3.0 0.00 0.00 0.00 6 1013.4
20260902135431 65 0 0.0 2.0 0.00 0.00 0.00 6 1013.5
20260902134432 65 274 1.0 2.0 0.00 0.00 0.00 6 1013.4
20260902133431 65 274 1.0 2.0 0.00 0.00 0.00 5 1013.5
20260902132431 65 0 0.0 2.0 0.00 0.00 0.00 6 1013.7
20260902131432 64 275 1.0 2.0 0.00 0.00 0.00 6 1014.0
20260902130432 65 0 0.0 0.0 0.00 0.00 0.00 5 1013.9
20260902125430 65 0 0.0 0.0 0.00 0.00 0.00 5 1014.0
20260902124429 65 0 0.0 0.0 0.00 0.00 0.00 5 1014.1
20260902123429 65 0 0.0 0.0 0.00 0.00 0.00 5 1014.3
20260902122429 66 0 0.0 0.0 0.00 0.00 0.00 5 1014.4
20260902121429 66 0 0.0 0.0 0.00 0.00 0.00 5 1014.4
20260902120429 66 0 0.0 0.0 0.00 0.00 0.00 5 1014.7
20260902115429 66 0 0.0 0.0 0.00 0.00 0.00 5 1014.6
20260902114430 66 0 0.0 1.0 0.00 0.00 0.00 5 1014.6
20260902113429 67 0 0.0 1.0 0.00 0.00 0.00 5 1014.7
20260902112433 67 0 0.0 2.0 0.00 0.00 0.00 5 1014.9
20260902111430 68 275 1.0 2.0 0.00 0.00 0.00 5 1014.9
20260902110429 69 275 1.0 3.0 0.00 0.00 0.00 5 1015.0
20260902105429 69 275 2.0 3.0 0.00 0.00 0.00 5 1015.0
20260902104430 69 275 1.0 3.0 0.00 0.00 0.00 5 1014.9
20260902103429 69 276 2.0 4.0 0.00 0.00 0.00 5 1014.9
20260902102429 69 0 0.0 2.0 0.00 0.00 0.00 5 1014.7
20260902101429 70 276 1.0 2.0 0.00 0.00 0.00 5 1014.6
20260902100429 70 276 1.0 3.0 0.00 0.00 0.00 4 1014.6
20260902095430 71 277 2.0 4.0 0.00 0.00 0.00 4 1014.6
20260902094428 72 278 2.0 7.0 0.00 0.00 0.00 4 1014.5
20260902093428 72 249 5.0 6.0 0.00 0.00 0.00 4 1014.5
20260902092428 72 272 4.0 7.0 0.00 0.00 0.00 4 1014.4
20260902091428 71 255 4.0 7.0 0.00 0.00 0.00 4 1014.3
20260902090431 71 268 2.0 4.0 0.00 0.00 0.00 4 1014.2
20260902085427 71 273 1.0 4.0 0.00 0.00 0.00 4 1014.2
20260902084427 71 0 0.0 4.0 0.00 0.00 0.00 4 1014.2
20260902082427 72 285 1.0 6.0 0.00 0.00 0.00 4 1013.9
20260902080426 73 278 2.0 4.0 0.00 0.00 0.00 4 1013.7
20260902075427 73 0 0.0 7.0 0.00 0.00 0.00 4 1013.5
20260902074426 74 258 1.0 4.0 0.00 0.00 0.00 4 1013.4
20260902073426 74 304 1.0 3.0 0.00 0.00 0.00 4 1013.3
20260902072431 75 0 0.0 4.0 0.00 0.00 0.00 4 1013.1
20260902071425 76 281 3.0 6.0 0.00 0.00 0.00 4 1013.0
20260902070429 77 257 3.0 11.0 0.00 0.00 0.00 4 1013.0
20260902065431 77 276 1.0 10.0 0.00 0.00 0.00 3 1012.8
20260902063428 78 251 3.0 11.0 0.00 0.00 0.00 3 1012.7
20260902062429 78 272 8.0 13.0 0.00 0.00 0.00 3 1012.6
20260902060425 79 241 5.0 10.0 0.00 0.00 0.00 3 1012.7
20260902055431 80 207 4.0 13.0 0.00 0.00 0.00 3 1012.5
20260902054425 80 273 3.0 11.0 0.00 0.00 0.00 3 1012.5
20260902053425 80 245 8.0 10.0 0.00 0.00 0.00 3 1012.6
20260902052426 80 291 1.0 13.0 0.00 0.00 0.00 3 1012.6
20260902051431 81 202 6.0 12.0 0.00 0.00 0.00 3 1012.6
20260902050425 81 268 4.0 10.0 0.00 0.00 0.00 3 1012.7
20260902045432 80 289 11.0 15.0 0.00 0.00 0.00 3 1012.8
20260902044428 81 306 4.0 10.0 0.00 0.00 0.00 3 1012.8
20260902043428 81 243 9.0 13.0 0.00 0.00 0.00 3 1012.6
20260902042426 81 197 3.0 9.0 0.00 0.00 0.00 3 1012.6
20260902040428 80 229 4.0 8.0 0.00 0.00 0.00 3 1012.8
20260902035432 79 255 3.0 7.0 0.00 0.00 0.00 4 1012.9
20260902034431 77 263 1.0 10.0 0.00 0.00 0.00 4 1013.0
20260902033429 79 252 4.0 10.0 0.00 0.00 0.00 4 1013.1
20260902032425 80 241 3.0 13.0 0.00 0.00 0.00 4 1013.1
20260902031425 79 208 5.0 10.0 0.00 0.00 0.00 4 1013.4
20260902030425 80 0 0.0 9.0 0.00 0.00 0.00 4 1013.5
20260902025425 79 260 7.0 13.0 0.00 0.00 0.00 4 1013.7
20260902024426 80 234 2.0 11.0 0.00 0.00 0.00 4 1013.8
20260902023425 79 285 10.0 13.0 0.00 0.00 0.00 4 1014.1
20260902022432 80 175 3.0 6.0 0.00 0.00 0.00 4 1014.2
20260902021425 79 275 1.0 14.0 0.00 0.00 0.00 4 1014.2
20260902020427 79 233 6.0 10.0 0.00 0.00 0.00 4 1014.4
20260902015427 78 277 9.0 10.0 0.00 0.00 0.00 4 1014.7
20260902014426 77 225 5.0 17.0 0.00 0.00 0.00 4 1014.8
20260902013425 78 294 18.0 25.0 0.00 0.00 0.00 4 1015.2
20260902012426 77 268 3.0 10.0 0.00 0.00 0.00 4 1015.2
20260902011425 77 288 2.0 7.0 0.00 0.00 0.00 4 1015.2
20260902010425 76 229 3.0 16.0 0.00 0.00 0.00 4 1015.2
20260902005425 75 270 9.0 11.0 0.00 0.00 0.00 4 1015.7
20260902003426 75 202 1.0 12.0 0.00 0.00 0.00 4 1015.8
20260902002425 75 279 4.0 15.0 0.00 0.00 0.00 4 1015.9
20260902001425 74 175 4.0 9.0 0.00 0.00 0.00 5 1016.2
20260902000429 73 106 4.0 14.0 0.00 0.00 0.00 5 1016.2
20260901235424 72 241 3.0 16.0 0.00 0.00 0.00 5 1016.1
20260901234424 71 232 2.0 8.0 0.00 0.00 0.00 5 1016.2
20260901233428 69 113 4.0 7.0 0.00 0.00 0.00 5 1016.4
20260901232427 68 59 2.0 5.0 0.00 0.00 0.00 6 1016.7
20260901231426 67 225 2.0 6.0 0.00 0.00 0.00 6 1017.0
20260901230423 66 124 1.0 5.0 0.00 0.00 0.00 6 1017.1
20260901225426 66 113 1.0 2.0 0.00 0.00 0.00 6 1017.2
20260901224428 66 136 3.0 5.0 0.00 0.00 0.00 6 1017.2
20260901223426 65 166 1.0 6.0 0.00 0.00 0.00 6 1017.2
20260901221423 65 122 3.0 4.0 0.00 0.00 0.00 6 1017.3
20260901220426 64 120 4.0 5.0 0.00 0.00 0.00 6 1017.2
20260901215422 64 122 2.0 5.0 0.00 0.00 0.00 6 1017.1
20260901214424 64 167 1.0 6.0 0.00 0.00 0.00 6 1017.1
20260901213422 64 185 1.0 4.0 0.00 0.00 0.00 6 1017.4
20260901212422 63 210 3.0 4.0 0.00 0.00 0.00 6 1017.3
20260901211422 63 211 1.0 3.0 0.00 0.00 0.00 6 1017.3
20260901210426 63 211 1.0 3.0 0.00 0.00 0.00 6 1017.2
20260901204426 65 210 5.0 5.0 0.00 0.00 0.00 5 1017.4